Regional Weather Roundup
Issued by NWS

Home | Current Version | Previous Version | Text Only | Print | Product List | Glossary Off
Versions: 1 2 3 4 5 6 7 8 9 10 11 12 13 14 15 16 17 18 19 20 21 22 23 24 25 26 27 28 29 30 31 32 33 34 35 36 37 38 39 40 41 42 43 44 45 46 47 48 49 50

364
ASUS43 KMPX 312310
RWRMN
WEATHER ROUNDUP FOR MINNESOTA
NATIONAL WEATHER SERVICE TWIN CITIES/CHANHASSEN MN
600 PM CDT TUE MAY 31 2016


NOTE: "FAIR" INDICATES FEW OR NO CLOUDS BELOW 12,000 FEET WITH NO
SIGNIFICANT WEATHER AND/OR OBSTRUCTIONS TO VISIBILITY. N/A MEANS
CURRENT SKY AND/OR WEATHER CONDITIONS ARE NOT AVAILABLE.

MNZ060>063-068>070-010000-
   Twin Cities Metro

CITY           SKY/WX    TMP DP  RH WIND       PRES   REMARKS
TWIN CITIES    CLOUDY    72  56  57 SW9       29.83F
ST PAUL        CLOUDY    69  62  78 S8        29.83F
CRYSTAL        CLOUDY    72  55  55 SW8       29.81F
BLAINE         PTSUNNY   72  57  60 S7        29.82F
EDEN PRAIRIE   CLOUDY    72  57  59 S7        29.81F
SOUTH ST PAUL  CLOUDY    69  61  76 S8        29.83F
LAKE ELMO      FAIR      68  63  83 SW7       29.84F
$$
MNZ001>005-007-008-013>017-022>024-027-028-010000-
   Northwest Minnesota

CITY           SKY/WX    TMP DP  RH WIND       PRES   REMARKS
BEMIDJI        SUNNY     66  48  50 SW13G18   29.75S
HALLOCK        CLOUDY    66  52  59 S20       29.67S
ROSEAU         PTSUNNY   61  55  82 E13G18    29.72S
WARROAD        CLOUDY    55  52  88 E12       29.75S
THIEF RVR FALL MOSUNNY   66  46  48 S16       29.72S
CROOKSTON      PTSUNNY   68  52  56 SW16      29.69F
FOSSTON        MOSUNNY   64  46  52 S15G22    29.73F
DETROIT LAKES  MOSUNNY   68  45  42 SW16G26   29.75F
MOORHEAD       MOSUNNY   70  46  43 S14G20    29.70F
PARK RAPIDS    PTSUNNY   69  47  45 SW14      29.77S
MAHNOMEN       CLOUDY    64  49  57 S15G21    29.72F
$$
MNZ006-009>011-018-025>026-010000-
   North Central Minnesota

CITY           SKY/WX    TMP DP  RH WIND       PRES   REMARKS
BAUDETTE       CLOUDY    55  52  89 E15       29.77S
FLAG ISLAND    CLOUDY    54  52  94 E13G20    29.76S
INTL FALLS     CLOUDY    53  51  93 SE12      29.81F FOG
WASKISH        PTSUNNY   63  55  77 E12       29.75F
BIG FORK       CLOUDY    57  54  88 SE7       29.80F
LONGVILLE      MOSUNNY   70  61  73 S6        29.77F
GRAND RAPIDS   CLOUDY    57  55  94 E7        29.82F
CRANE LAKE     CLOUDY    52  50  93 CALM      29.87F FOG
ORR            CLOUDY    54  50  87 SE7       29.82S
COOK           CLOUDY    54  52  94 SE7       29.85S
WALKER         FAIR      66  48  53 SW10G21   29.76F
$$
MNZ012-019>021-037-010000-
   Northeast Minnesota

CITY           SKY/WX    TMP DP  RH WIND       PRES   REMARKS
DULUTH         CLOUDY    47  45  93 E10       29.88S
ELY            CLOUDY    52  48  87 SE5       29.88F
HIBBING        CLOUDY    53  51  93 SE13      29.84F
EVELETH        CLOUDY    52  50  93 E5        29.87F
DULUTH HARBOR  CLOUDY    45  43  93 NE24      29.92S
TWO HARBORS    LGT RAIN  50  45  81 NE10G17   29.89R
SILVER BAY     CLOUDY    46  43  87 NE12G23   29.91R
GRAND MARAIS     N/A     50  43  77 NE14G25   29.93F
G MARAIS ARPRT HVY RAIN  45  39  81 NE13G20   29.95F
$$
MNZ029>031-032-039>041-046>048-054>057-064-010000-
   West Central Minnesota

CITY           SKY/WX    TMP DP  RH WIND       PRES   REMARKS
FERGUS FALLS   PTSUNNY   70  48  46 SW20G25   29.72F
WHEATON        MOSUNNY   72  48  43 SW17      29.76F
MORRIS         MOSUNNY   70  46  43 SW12      29.78F
ALEXANDRIA     SUNNY     69  45  41 SW15      29.81F
ELBOW LAKE     CLOUDY    67  46  47 SW18G24   29.78F
WADENA         MOSUNNY   66  46  48 SW12      29.78F
GLENWOOD       SUNNY     72  46  40 SW13      29.81F
APPLETON       PTSUNNY   72  43  35 SW8       29.79S
BENSON         MOSUNNY   70  45  40 W8        29.80F
ORTONVILLE     CLOUDY    70  45  40 SW9G16    29.78F
MADISON        CLOUDY    72  43  35 SW13G18   29.80F
WILLMAR        FAIR      72  48  43 SW8       29.83F
$$
MNZ033>034-036-042>043-049>051-058-059-010000-
   Central Minnesota

CITY           SKY/WX    TMP DP  RH WIND       PRES   REMARKS
ST CLOUD       CLOUDY    73  51  46 SW15      29.81S
SAUK CENTRE    FAIR      70  47  44 SW12      29.81F
PAYNESVILLE    MOSUNNY   72  45  38 SW13      29.83S
AITKIN         CLOUDY    73  55  53 S7        29.77S
PINE RIVER     SUNNY     70  52  52 SW8G20    29.81F
BRAINERD       MOSUNNY   71  50  47 SW12      29.79F
STAPLES        MOSUNNY   70  46  43 SW15G21   29.79S
LONG PRAIRIE   FAIR      70  46  43 SW14G20   29.81F
LITTLE FALLS   MOSUNNY   72  45  37 SW10G17   29.80F
LITCHFIELD     MOSUNNY   73  48  40 W13G18    29.83S
BUFFALO        PTSUNNY   73  53  48 SW7       29.83S
MAPLE LAKE     MOSUNNY   74  55  50 S5        29.83S
HUTCHINSON     SUNNY     74  51  45 SW9       29.84F
$$
MNZ037-044-045-052-053-010000-
   East Central Minnesota

CITY           SKY/WX    TMP DP  RH WIND       PRES   REMARKS
PRINCETON      CLOUDY    75  54  46 S13       29.81S
MORA           CLOUDY    70  55  60 S6        29.82F
CAMBRIDGE      CLOUDY    73  57  56 S7        29.80F
RUSH CITY      CLOUDY    70  57  64 SW8       29.82F
MOOSE LAKE     CLOUDY    46  43  87 E6        29.85S
HINCKLEY       FAIR      63  61  94 N8        29.82S
CLOQUET        CLOUDY    46  43  87 E9G16     29.88R
MCGREGOR       CLOUDY    61  54  77 E10       29.82F
$$
MNZ071>073-080-081-089-090-097-098-010000-
   Southwest Minnesota

CITY           SKY/WX    TMP DP  RH WIND       PRES   REMARKS
MONTEVIDEO     PTSUNNY   73  45  35 W8G17     29.82F
GRANITE FALLS  MOSUNNY   73  48  40 SW12      29.83F
CANBY          CLOUDY    74  46  37 SW15      29.82F
MARSHALL       MOSUNNY   74  45  35 SW17G23   29.83F
REDWOOD FALLS  MOSUNNY   73  45  36 SW13G18   29.83F
OLIVIA         MOSUNNY   70  45  40 SW10      29.82F
PIPESTONE      SUNNY     72  46  40 W13       29.86F
WINDOM         SUNNY     72  45  37 W14G21    29.86F
WORTHINGTON    MOSUNNY   71  47  42 W13       29.88F
JACKSON        SUNNY     72  43  35 W10G16    29.88S
TRACY          SUNNY     73  50  45 W8        29.85F
SLAYTON        SUNNY     71  44  37 W17       29.87F
$$
MNZ065>067-074>077-082>085-091>093-010000-
   South Central Minnesota

CITY           SKY/WX    TMP DP  RH WIND       PRES   REMARKS
MANKATO        CLOUDY    73  54  49 W10       29.84F
NEW ULM        SUNNY     72  50  46 W13       29.85S
ST JAMES       SUNNY    N/A N/A N/A W6        29.86F
FAIRMONT       MOSUNNY   73  52  46 W10       29.86F
GLENCOE        MOSUNNY   75  54  48 SW9       29.82F
FARIBAULT      CLOUDY    66  63  88 S3        29.86F
OWATONNA       CLOUDY    68  59  73 SW9       29.86F
WASECA         CLOUDY    68  59  73 SW3       29.87F
ALBERT LEA     CLOUDY    68  57  68 W6        29.87S
$$
MNZ078>079-086>088-094>096-010000-
   Southeast Minnesota

CITY           SKY/WX    TMP DP  RH WIND       PRES   REMARKS
ROCHESTER      CLOUDY    67  64  90 W3        29.87F
RED WING       CLOUDY    70  63  78 CALM      29.83F
STANTON        PTSUNNY   69  61  76 W6        29.83F
DODGE CENTER   CLOUDY    64  64 100 W8        29.86F
WINONA         LGT RAIN  66  63  88 CALM      29.88R
AUSTIN         CLOUDY    68  59  73 CALM      29.86F
PRESTON        CLOUDY    65  62  88 W3          N/A
$$
ABBREVIATIONS USED IN REMARKS
   TC - TEMPERATURES IN CELSIUS
  WCI - WIND CHILL INDEX
   HX - HEAT INDEX
  VSB - VISIBILITY
$$




USA.gov is the U.S. government's official web portal to all federal, state and local government web resources and services.